Tracking 30995 objects as of 7-Jul-2025
HD Live streaming from Space Station
objects crossing your sky now

SL-14 DEB

Track SL-14 DEB now!
10-day predictions


NORAD ID: 19174
Int'l Code: 1978-100R
Perigee: 1,466.9 km
Apogee: 1,712.5 km
Inclination: 81.9 °
Period: 117.8 minutes
Semi major axis: 7960 km
RCS: 0.0241 m2 (small)
Launch date: October 26, 1978
Source: Commonwealth of Independent States (former USSR) (CIS)
Launch site: PLESETSK MISSILE AND SPACE COMPLEX (PKMTR)

Note: This is SATELLITE DEBRIS
Your satellite tracking list
BADR-5 (ARABSAT 5B)
Track 1 satellite(s)




NASA's NSSDC Master Catalog

Two Line Element Set (TLE):
1 19174U 78100R   25187.62598473  .00000156  00000-0  13300-2 0  9996
2 19174  81.9024 249.5972 0154255 139.1315  16.3287 12.22285253656490
Source of the keplerian elements: AFSPC